Location: Korczew
(51.3586°N, 19.4491°E)
Time: 21:34:01
(UTC+00:00)

ISS - Pass Details

Date: 19 May 2025
Orbit: 415 x 416 km, 51.6° (Epoch: 16 June)

Event Time Altitude Azimuth Distance (km) Brightness Sun altitude
Rises 20:15:11 0° 283° (WNW) 2,363 0.8 -12.1°
Reaches altitude 10° 20:17:18 10° 280° (W) 1,497 -0.3 -12.2°
Maximum altitude 20:20:36 58° 201° (SSW) 489 -3.7 -12.5°
Enters shadow 20:22:35 22° 127° (SE) 974 -2.5 -12.7°
